This is the latest recevied weather packets stored in our database for station/object KD9JJA. If no packets are shown the sender has not sent any weather packets the latest 1 day(s).
| Time | Temp. | Humidity | Pressure | Rain* | Wind** | Luminosity | Snow |
|---|---|---|---|---|---|---|---|
| 1777993068 | 15.56° C | 98% | 1010.1 hPa | 0 mm | 0 m/s | 95 W/m² | - |
| 1777992767 | 15.56° C | 98% | 1010.2 hPa | 0 mm | 0 m/s | 84 W/m² | - |
| 1777992463 | 15.56° C | 98% | 1010.1 hPa | 0 mm | 0 m/s | 79 W/m² | - |
| 1777992162 | 15.56° C | 98% | 1010.2 hPa | 0 mm | 0 m/s | 76 W/m² | - |
| 1777991858 | 15.56° C | 99% | 1010.1 hPa | 0 mm | 0 m/s | 67 W/m² | - |
| 1777991556 | 15° C | 98% | 1010.1 hPa | 0 mm | 0 m/s | 66 W/m² | - |
| 1777991255 | 15.56° C | 99% | 1009.9 hPa | 0 mm | 0 m/s | 82 W/m² | - |
| 1777990950 | 15° C | 99% | 1010 hPa | 0 mm | 0 m/s | 81 W/m² | - |
| 1777990648 | 15° C | 99% | 1009.8 hPa | 0 mm | 0.45 m/s, 229° | 72 W/m² | - |
| 1777990345 | 15° C | 99% | 1009.8 hPa | 0 mm | 0 m/s | 75 W/m² | - |
| 1777990040 | 15° C | 99% | 1009.9 hPa | 0 mm | 0 m/s | 86 W/m² | - |
| 1777989738 | 15° C | 99% | 1009.8 hPa | 0 mm | 0 m/s | 86 W/m² | - |
| 1777989434 | 15° C | 99% | 1009.7 hPa | 0 mm | 0 m/s | 83 W/m² | - |
| 1777989131 | 15° C | 99% | 1009.9 hPa | 0 mm | 0 m/s | 82 W/m² | - |
| 1777988826 | 15° C | 99% | 1009.7 hPa | 0 mm | 0 m/s | 79 W/m² | - |
| 1777988525 | 15° C | 99% | 1009.7 hPa | 0 mm | 0 m/s | 74 W/m² | - |
| 1777988221 | 14.44° C | 99% | 1009.7 hPa | 0 mm | 0 m/s | 67 W/m² | - |
| 1777987917 | 14.44° C | 99% | 1010 hPa | 0 mm | 0 m/s | 63 W/m² | - |
| 1777987613 | 14.44° C | 99% | 1009.8 hPa | 0 mm | 0 m/s | 66 W/m² | - |
| 1777987311 | 14.44° C | 99% | 1010 hPa | 0 mm | 0 m/s | 61 W/m² | - |
| 1777987008 | 14.44° C | 99% | 1009.8 hPa | 0 mm | 0 m/s | 59 W/m² | - |
| 1777986705 | 14.44° C | 99% | 1009.9 hPa | 0 mm | 0 m/s | 59 W/m² | - |
| 1777986403 | 14.44° C | 99% | 1009.6 hPa | 0 mm | 0 m/s | 59 W/m² | - |
| 1777986101 | 14.44° C | 99% | 1009.8 hPa | 0 mm | 0 m/s | 60 W/m² | - |
| 1777985792 | 14.44° C | 99% | 1009.5 hPa | 0 mm | 0 m/s | 58 W/m² | - |
* Rain latest hour (hover to see other rain measurements)
** Current wind speed in m/s (hover to see current wind gust speed)